OPS 1127 (DMSP 4B F3)

Satellite information

Favourite Embed

Satellite Type and Status

PAYLOADIN ORBIT

Key statistics

Satellite OPS 1127 (DMSP 4B F3) at a glance.

Uptime

20376

Days in orbit

Revolutions

≈ 14.3

Per day

Orbit

SSO

Sun Synchronous Orbit

Inclination

98.5

Latest

Satellite identification and parameters

Extended collection of information and parameters for OPS 1127 (DMSP 4B F3).

Object identification

Identified? True

Debris? False

Object name: OPS 1127 (DMSP 4B F3)

International designator: 1969-062A

Object number (NORAD): 4047

Object ID (CCSDS): 4047

Country: UNITED STATES OF AMERICA (US)

Current information (Y/N): Y

RCS size: MEDIUM

Orbital parameters

Period: 100.744 minutes

Inclination: 98.4767 deg

SMA: 7171.988 km

Apoapsis: 825.755 km

Periapsis: 761.951 km

RAAN: 347.2694 deg

Eccentricy: 0.0044481

Argument of periapsis: 20.458 deg

Mean anomaly: 339.8372 deg

Mean motion: 14.29365907 rev/day

Mean motion (dot): 0.00000184 rev/day2

B* drag term: 0.000088165 1/REarth

Two-line elements (TLE)

Creation date: May 5, 2025, 2:11 a.m.

Reference frame: TEME

Reference center: EARTH

Epoch: May 4, 2025, 3:06 p.m. UTC

TLE line 0: 0 OPS 1127 (DMSP 4B F3)

TLE line 1: 1 04047U 69062A 25124.62920979 .00000184 00000-0 88165-4 0 9991

TLE line 2: 2 04047 98.4767 347.2694 0044481 20.4580 339.8372 14.29365907902960

Live tracking on map

Real-time ground track for satellite OPS 1127 (DMSP 4B F3).

In-orbit conjunctions

There are no conjunctions computed for OPS 1127 (DMSP 4B F3), at the moment. Check back to stay up to date, as we update our databases every day.

Go to all conjunctions

Associated space launch

DSAP-4B (Defense Satellite Application Program Block 4B) was the sixth version of the military meteorological satellites of the Defense Meteorological Satellite Program.

OPS 1127 (DMSP 4B F3) was lifted into orbit during the mission ‘Thor Burner 2 | DSAP-4B F3’, on board a Thor Burner 2 space rocket.

The launch took place on July 23, 1969, 4:39 a.m. from Space Launch Complex 10W.

For more information about the launch, click the button.

Launch to space Thor Burner 2 | DSAP-4B F3
Thor Burner 2 | DSAP-4B F3

Agency: N/A

Status: Launch Successful

Launch date: July 23, 1969, 4:39 a.m. UTC

Rocket: Thor Burner 2

Launch pad: Space Launch Complex 10W

Location: Vandenberg SFB, CA, USA

...

Latest news about this satellite

There are no fresh news available about this satellite. Check back as we update our databases every day.


Newsletter sign-up

Weekly statistics, charts and insights to help you stay on top of the space industry.